CW1102 Weather Reports


Display with metric or nautical units.
time (UTC)temp
F
wind
direction
speed
MPH
gust
MPH
rain 1hr
in
rain 24hr
in
rain mn
in
humidity
%
barometer
mb
20201129193022 27 280 0.0 1.0 0.00 0.00 0.00 93 1035.4
20201129184657 23 285 0.0 1.0 0.00 0.00 0.00 93 1036.1
20201129183111 23 293 0.0 1.0 0.00 0.00 0.00 93 1036.5
20201129181650 22 290 0.0 1.0 0.00 0.00 0.00 94 1036.7
20201129180133 21 282 0.0 1.0 0.00 0.00 0.00 93 1036.7
20201129174626 20 277 0.0 1.0 0.00 0.00 0.00 93 1036.8
20201129173145 20 276 0.0 1.0 0.00 0.00 0.00 93 1036.7
20201129171630 18 273 0.0 1.0 0.00 0.00 0.00 93 1036.7
20201129170149 18 294 0.0 1.0 0.00 0.00 0.00 93 1036.7
20201129164707 17 278 0.0 1.0 0.00 0.00 0.00 92 1036.6
20201129163123 17 288 0.0 1.0 0.00 0.00 0.00 92 1036.6
20201129161712 17 314 0.0 1.0 0.00 0.00 0.00 92 1036.4
20201129160108 16 326 0.0 0.0 0.00 0.00 0.00 92 1036.1
20201129154626 15 41 0.0 1.0 0.00 0.00 0.00 92 1035.9
20201129153111 0 0.0 0.0 0.00 0.00 0.00 1035.8
20201129151653 0 0.0 0.0 0.00 0.00 0.00 1035.8
20201129150057 0 0.0 0.0 0.00 0.00 0.00 1035.7
20201129144610 0 0.0 0.0 0.00 0.00 0.00 1035.6
20201129143058 0 0.0 0.0 0.00 0.00 0.00 1035.5
20201129141527 0 0.0 0.0 0.00 0.00 0.00 1035.5
20201129140046 0 0.0 0.0 0.00 0.00 0.00 1035.5
20201129134535 0 0.0 0.0 0.00 0.00 0.00 1035.5
20201129133035 0 0.0 0.0 0.00 0.00 0.00 1035.5
20201129131514 0 0.0 0.0 0.00 0.00 0.00 1035.6
20201129124814 0 0.0 0.0 0.00 0.00 0.00 1035.5
20201129123058 0 0.0 0.0 0.00 0.00 0.00 1035.6
20201129121619 0 0.0 0.0 0.00 0.00 0.00 1035.7
20201129120101 0 0.0 0.0 0.00 0.00 0.00 1035.8
20201129114619 0 0.0 0.0 0.00 0.00 0.00 1035.9
20201129113132 0 0.0 0.0 0.00 0.00 0.00 1036.1
20201129111617 14 212 0.0 1.0 0.00 0.00 0.00 91 1036.1
20201129110133 15 209 0.0 0.0 0.00 0.00 0.00 92 1036.2
20201129104720 15 205 0.0 0.0 0.00 0.00 0.00 91 1036.5
20201129103054 16 139 0.0 1.0 0.00 0.00 0.00 92 1036.5
20201129101527 16 102 0.0 1.0 0.00 0.00 0.00 92 1036.3
20201129100028 16 116 0.0 1.0 0.00 0.00 0.00 92 1036.3
20201129094551 16 112 0.0 0.0 0.00 0.00 0.00 92 1036.2
20201129093047 17 112 0.0 1.0 0.00 0.00 0.00 92 1036.2
20201129091524 17 129 0.0 1.0 0.00 0.00 0.00 92 1036.2
20201129090023 18 111 0.0 0.0 0.00 0.00 0.00 92 1036.1
20201129084522 18 124 0.0 1.0 0.00 0.00 0.00 93 1036.1
20201129083038 18 138 0.0 0.0 0.00 0.00 0.00 92 1036.1
20201129081525 18 117 0.0 0.0 0.00 0.00 0.00 92 1036.1
20201129080036 19 111 0.0 1.0 0.00 0.00 0.00 91 1036.1
20201129074518 19 99 0.0 1.0 0.00 0.00 0.00 92 1036.1
20201129073025 19 148 0.0 1.0 0.00 0.00 0.00 92 1035.9
20201129071525 20 13 0.0 0.0 0.00 0.00 0.00 91 1036.1
20201129070009 21 319 0.0 1.0 0.00 0.00 0.00 90 1036.1
20201129063217 21 215 0.0 1.0 0.00 0.00 0.00 91 1035.7
20201129061715 22 215 0.0 0.0 0.00 0.00 0.00 90 1035.7
20201129060140 23 255 0.0 0.0 0.00 0.00 0.00 90 1035.7
20201129054632 23 254 0.0 1.0 0.00 0.00 0.00 90 1035.7
20201129053104 23 205 0.0 0.0 0.00 0.00 0.00 89 1035.5
20201129051651 24 120 0.0 1.0 0.00 0.00 0.00 89 1035.4
20201129050130 24 117 0.0 1.0 0.00 0.00 0.00 89 1035.3
20201129044713 25 86 0.0 2.0 0.00 0.00 0.00 87 1035.5
20201129043157 26 127 1.0 2.0 0.00 0.00 0.00 87 1035.5
20201129041644 27 108 1.0 3.0 0.00 0.00 0.00 86 1035.3
20201129040135 27 160 0.0 2.0 0.00 0.00 0.00 87 1035.3
20201129034635 27 124 0.0 2.0 0.00 0.00 0.00 88 1035.2
20201129033146 27 113 1.0 3.0 0.00 0.00 0.00 88 1035.2
20201129031619 27 109 0.0 2.0 0.00 0.00 0.00 89 1035.0
20201129030207 28 72 0.0 1.0 0.00 0.00 0.00 88 1034.8
20201129024619 27 155 0.0 0.0 0.00 0.00 0.00 89 1034.8
20201129023108 27 152 0.0 0.0 0.00 0.00 0.00 88 1034.6
20201129021618 27 216 0.0 1.0 0.00 0.00 0.00 88 1034.4
20201129020137 28 131 0.0 1.0 0.00 0.00 0.00 88 1034.4
20201129014541 28 135 0.0 2.0 0.00 0.00 0.00 87 1034.1
20201129013054 29 84 0.0 1.0 0.00 0.00 0.00 86 1033.8
20201129011623 29 150 0.0 0.0 0.00 0.00 0.00 85 1034.0
20201129010244 30 136 0.0 1.0 0.00 0.00 0.00 84 1033.8
20201129004604 31 278 0.0 1.0 0.00 0.00 0.00 82 1033.5
20201129003054 30 281 0.0 1.0 0.00 0.00 0.00 83 1033.7
20201129001605 30 273 0.0 0.0 0.00 0.00 0.00 83 1033.3
20201129000037 31 273 0.0 1.0 0.00 0.00 0.00 80 1033.2
20201128234544 32 155 0.0 0.0 0.00 0.00 0.00 78 1033.2
20201128231612 35 99 0.0 1.0 0.00 0.00 0.00 72 1033.0
20201128230048 36 189 0.0 0.0 0.00 0.00 0.00 71 1032.7
20201128224605 37 145 0.0 0.0 0.00 0.00 0.00 70 1032.7
20201128223044 36 117 0.0 1.0 0.00 0.00 0.00 70 1032.5
20201128221539 36 112 0.0 1.0 0.00 0.00 0.00 71 1032.7
20201128220040 36 162 0.0 1.0 0.00 0.00 0.00 71 1032.4
20201128214605 36 107 0.0 2.0 0.00 0.00 0.00 69 1032.5
20201128213043 36 213 0.0 1.0 0.00 0.00 0.00 71 1032.6
20201128211544 37 255 0.0 1.0 0.00 0.00 0.00 71 1032.5
20201128210103 36 263 0.0 1.0 0.00 0.00 0.00 74 1032.5
20201128204543 34 117 1.0 2.0 0.00 0.00 0.00 77 1032.6
20201128203020 34 150 0.0 1.0 0.00 0.00 0.00 80 1032.3
20201128201528 33 135 1.0 3.0 0.00 0.00 0.00 79 1032.5
20201128200025 32 213 0.0 2.0 0.00 0.00 0.00 82 1032.5
20201128194712 31 145 0.0 2.0 0.00 0.00 0.00 83 1032.7